Wind_Speed
13 12 12 11 11 10 10 9 9 9 9 9 10 10 11 11 11 11 12 12 13 14 15 15 16 16 17 17 18 18 18 19 20 20 20 21 21 21 22 22 23 23 24
14 13 12 12 11 11 10 10 9 10 10 10 11 11 11 12 12 13 14 14 15 16 17 17 18 18 19 19 19 19 19 20 21 21 21 22 22 22 23 24 24 25 25
14 13 13 12 11 11 10 10 10 10 11 11 11 12 12 12 13 14 15 16 16 17 17 18 18 19 19 19 20 20 21 21 22 22 22 22 23 24 24 25 25 26 26
13 13 12 12 11 11 11 10 10 11 11 11 11 12 12 13 14 15 15 16 16 17 17 18 18 19 20 20 21 21 22 22 23 23 23 24 24 25 25 26 26 27 27
12 12 11 11 11 10 10 10 10 10 11 11 12 13 14 15 15 16 17 17 17 18 19 19 20 20 21 21 22 22 22 23 24 24 25 26 26 26 27 27 27 28 28
11 11 11 11 10 10 10 10 11 11 12 12 13 14 15 16 17 17 18 18 18 19 20 20 21 21 21 22 22 23 24 24 25 26 26 27 27 28 28 28 28 29 29
11 11 10 10 10 10 10 11 12 12 13 14 14 15 16 17 17 18 18 19 19 20 21 21 21 22 22 23 24 24 25 25 26 27 27 28 28 28 29 29 29 29 30
11 10 10 10 10 10 11 12 12 13 13 14 15 16 16 17 18 18 19 20 20 21 21 22 23 23 24 24 25 25 26 27 27 28 28 29 29 29 30 30 30 30 31
11 10 10 11 11 11 12 13 13 14 14 15 16 17 18 18 18 19 20 21 21 22 23 23 24 25 25 26 26 27 27 28 29 29 29 30 30 30 30 31 31 31 32
11 11 11 11 12 12 13 13 14 15 15 16 17 18 18 19 19 20 21 22 22 23 24 25 25 26 26 27 27 28 28 29 29 30 31 31 31 31 31 32 32 32 33
11 11 11 12 12 13 14 14 15 16 17 17 18 18 19 20 21 22 23 23 24 25 25 26 26 27 27 28 29 29 29 30 30 31 31 32 32 32 32 33 33 33 34
13 13 13 13 14 14 15 16 16 17 18 19 19 20 21 22 22 23 24 25 26 26 27 27 28 28 29 29 30 30 31 31 31 32 32 33 33 33 33 34 34 34 35
15 15 14 15 15 16 17 18 18 19 20 20 21 21 22 23 24 25 25 26 27 28 28 28 29 29 30 30 31 31 32 32 33 33 33 34 34 34 35 35 35 36 36
16 16 17 17 17 18 19 19 20 20 21 22 22 23 24 25 26 26 27 28 28 29 30 30 30 31 31 31 32 32 32 33 33 34 34 35 35 35 35 36 36 36 37
18 18 18 19 19 20 20 21 21 21 22 23 24 25 26 27 28 28 29 30 30 30 31 31 31 32 32 32 33 33 33 34 34 34 35 35 36 36 36 37 37 37 38
20 20 21 21 22 22 22 22 23 23 24 25 26 27 28 29 29 30 31 31 31 32 32 32 32 33 33 33 33 34 34 35 35 35 36 36 36 37 37 37 38 38 38
23 23 23 23 23 23 23 24 25 26 27 27 28 29 30 30 30 31 31 31 32 32 33 33 34 34 34 34 35 35 35 36 36 36 36 36 37 37 38 38 39 39 40
26 25 25 25 25 26 26 26 27 27 28 29 30 30 31 31 32 32 32 32 33 33 34 34 34 34 35 35 36 36 36 36 37 37 37 37 38 38 39 40 41 41 41
28 28 27 27 28 28 29 29 29 29 30 31 31 32 32 33 33 33 33 34 34 34 34 35 35 35 36 36 37 37 37 38 38 38 38 39 39 40 41 42 42 42 43
30 30 30 30 31 31 31 31 31 32 32 33 33 33 33 33 34 34 34 35 35 35 35 35 35 36 36 37 38 38 38 38 39 39 39 40 41 41 42 43 43 43 43
32 32 32 33 33 33 33 33 33 33 34 34 34 34 34 34 35 35 35 35 35 35 36 36 36 37 37 38 38 38 39 39 40 40 40 41 43 43 43 43 43 43 43
34 34 34 34 34 34 34 34 34 35 34 34 34 35 36 36 36 36 36 36 36 36 37 37 37 37 38 38 38 39 39 40 40 41 42 43 43 43 43 44 44 44 45
36 36 35 35 35 35 35 35 35 35 35 34 35 36 36 36 36 37 36 37 37 37 37 37 37 38 38 39 39 39 39 40 40 41 42 43 44 44 44 45 45 45 46
36 36 36 36 36 36 35 35 35 35 35 36 36 36 37 37 37 37 37 37 37 37 37 37 38 38 39 39 39 40 41 41 41 41 42 43 44 44 45 45 46 46 47
37 37 36 36 36 36 36 36 36 36 36 36 37 37 37 37 38 38 38 38 38 38 38 38 38 38 39 40 40 41 41 42 42 43 43 43 44 45 45 46 46 47 48
37 36 36 36 36 36 36 36 36 36 36 36 37 37 37 37 38 38 38 38 38 38 38 38 38 39 40 41 41 41 42 43 43 44 44 44 44 45 46 47 48 48 49
Wind_Direction
219 221 224 227 229 233 238 244 251 256 260 265 271 274 277 279 280 283 285 287 288 289 289 290 290 291 291 290 290 290 290 289 288 288 288 287 286 284 284 283 282 280 279
223 224 227 229 231 236 242 247 251 256 261 266 271 274 276 278 280 283 284 286 288 289 289 289 290 290 291 291 291 291 291 290 289 288 288 288 287 286 285 283 283 282 281
224 226 228 230 234 238 244 249 254 258 262 267 271 274 276 278 280 283 284 286 287 287 288 289 290 291 291 291 292 292 291 290 289 289 289 288 287 287 286 284 283 282 281
220 224 227 231 236 242 246 252 256 260 264 269 272 275 277 280 282 284 286 287 288 288 289 290 291 291 292 293 293 293 292 291 291 290 290 289 288 287 286 285 283 283 282
216 221 226 231 237 241 245 250 254 259 265 269 273 275 278 281 284 286 287 287 288 289 290 291 292 292 292 293 293 292 292 292 292 291 291 290 289 288 287 285 283 282 281
216 223 229 234 238 241 245 249 256 262 267 271 274 278 281 284 285 286 287 288 289 290 291 292 293 293 293 293 293 293 292 292 291 291 291 290 290 289 288 287 285 283 282
220 227 232 235 237 241 247 254 261 267 271 275 278 280 283 285 286 286 287 288 289 289 290 291 292 292 292 293 293 293 293 292 291 291 291 290 290 289 288 287 286 285 284
225 229 234 238 242 248 254 260 265 270 274 277 280 282 284 286 286 287 288 288 289 289 290 291 291 291 291 292 292 293 292 292 291 291 291 290 290 289 289 288 287 286 284
231 234 239 243 247 253 258 263 268 273 276 280 282 284 286 287 287 288 289 289 290 291 291 292 292 292 292 292 292 292 292 292 291 291 291 290 289 288 288 287 286 286 285
235 240 245 248 253 258 262 266 270 274 278 280 283 285 287 288 289 289 290 291 292 293 293 293 293 292 292 292 291 291 292 292 292 291 291 290 289 288 288 287 286 285 284
243 246 252 256 260 263 265 268 272 275 278 281 282 284 286 287 289 290 291 293 294 294 294 294 294 293 292 292 292 291 291 292 292 291 291 290 290 289 288 288 287 286 285
249 253 257 261 263 266 269 271 274 277 280 281 283 284 286 288 290 291 292 294 295 295 295 295 295 294 294 293 292 292 292 292 291 290 290 290 290 289 288 287 287 286 286
253 257 260 263 266 269 272 275 277 279 280 282 284 285 287 289 291 292 293 294 295 296 296 295 294 294 294 293 293 292 292 292 292 291 290 290 290 289 289 288 287 287 286
253 258 262 266 268 271 274 276 277 279 281 283 285 287 288 289 291 292 292 292 293 294 295 294 294 294 294 294 293 293 293 293 293 292 291 291 290 290 289 289 288 287 287
257 261 265 268 269 272 274 276 278 280 281 283 286 288 288 289 291 292 292 292 293 294 294 294 295 294 294 294 294 293 293 293 292 292 291 291 290 290 289 289 288 287 287
260 264 267 268 271 273 275 277 279 280 282 284 286 287 288 289 291 292 292 292 292 293 294 294 295 294 294 293 293 293 293 292 292 292 292 291 290 290 289 289 288 288 287
261 264 266 269 271 273 275 278 280 281 283 283 285 286 287 289 290 290 291 291 292 292 293 293 293 293 293 293 293 293 293 292 292 292 292 291 291 290 289 289 288 288 287
262 265 267 268 270 272 276 278 280 282 284 284 285 287 287 288 289 290 290 290 291 291 292 292 292 293 294 294 294 294 294 293 293 292 292 291 291 291 290 290 289 288 288
263 265 267 269 271 274 276 278 279 280 282 283 285 287 287 288 289 289 290 290 291 291 291 291 292 294 294 294 294 295 295 294 294 293 293 292 292 292 291 290 289 289 288
263 265 267 270 272 274 276 278 279 279 281 283 285 287 287 287 288 289 290 290 290 290 291 291 292 293 294 294 295 295 295 295 295 294 294 294 293 293 292 291 290 290 289
263 265 267 270 272 274 276 277 279 279 280 282 284 285 286 286 287 288 289 289 289 290 291 291 292 293 293 294 295 295 296 296 296 296 295 295 295 294 293 293 292 291 290
263 265 267 269 271 273 275 276 278 279 281 282 283 283 284 285 286 287 288 289 289 290 291 291 292 292 293 294 295 295 296 297 297 297 297 297 296 295 294 294 293 292 292
263 265 266 268 270 272 274 276 277 279 280 281 281 282 284 285 286 286 287 288 288 289 290 291 291 292 293 294 294 295 296 296 296 297 298 298 297 296 295 295 294 294 293
262 264 265 267 269 271 273 275 276 277 278 279 280 282 283 284 285 285 285 286 287 288 289 290 291 292 293 294 295 296 296 297 296 297 298 298 297 297 296 296 295 295 294
261 263 265 266 268 269 271 273 274 275 276 278 279 280 281 282 283 284 284 285 286 288 289 290 291 292 293 294 295 296 296 297 297 298 298 299 298 298 298 297 297 296 296
261 262 264 266 267 269 270 272 273 274 275 277 278 279 280 281 282 283 283 284 286 287 288 289 291 292 293 294 296 296 297 298 298 298 298 298 298 299 299 298 298 297 296
Height
5875 5877 5878 5878 5879 5880 5880 5881 5882 5882 5882 5883 5883 5883 5883 5883 5883 5882 5882 5881 5881 5880 5879 5879 5878 5877 5876 5876 5875 5874 5873 5871 5870 5869 5868 5867 5866 5865 5864 5863 5862 5861 5859
5874 5875 5876 5877 5878 5878 5879 5879 5880 5880 5881 5881 5881 5881 5881 5881 5881 5880 5880 5879 5878 5878 5877 5876 5875 5874 5874 5873 5872 5871 5869 5868 5867 5866 5865 5864 5862 5861 5860 5859 5858 5857 5855
5872 5873 5874 5875 5876 5877 5877 5878 5878 5879 5879 5879 5879 5879 5879 5879 5878 5878 5877 5877 5876 5875 5874 5873 5872 5871 5870 5869 5868 5867 5866 5865 5863 5862 5861 5860 5859 5857 5856 5855 5854 5852 5851
5870 5871 5872 5873 5874 5875 5876 5876 5877 5877 5877 5877 5877 5877 5877 5877 5876 5875 5875 5874 5873 5872 5871 5870 5869 5868 5867 5866 5865 5864 5862 5861 5859 5858 5857 5856 5854 5853 5852 5850 5849 5848 5846
5868 5869 5870 5871 5872 5873 5873 5874 5875 5875 5875 5875 5875 5875 5875 5874 5874 5873 5872 5871 5870 5870 5868 5867 5866 5865 5864 5863 5861 5860 5858 5857 5856 5854 5853 5851 5850 5849 5847 5846 5844 5843 5841
5866 5867 5868 5869 5870 5871 5871 5872 5872 5873 5873 5873 5873 5872 5872 5872 5871 5870 5869 5868 5867 5866 5865 5864 5863 5861 5860 5859 5857 5856 5854 5853 5851 5850 5848 5847 5845 5844 5842 5840 5839 5837 5836
5864 5865 5866 5867 5868 5869 5869 5870 5870 5870 5870 5871 5870 5870 5869 5869 5868 5867 5866 5865 5864 5863 5862 5860 5859 5858 5856 5855 5853 5852 5850 5849 5847 5845 5844 5842 5840 5838 5836 5835 5833 5832 5830
5862 5863 5864 5865 5866 5866 5867 5867 5868 5868 5868 5868 5867 5867 5866 5866 5865 5864 5863 5862 5861 5859 5858 5857 5855 5854 5852 5851 5849 5847 5846 5844 5842 5840 5838 5837 5835 5833 5831 5829 5827 5826 5824
5860 5861 5861 5862 5863 5864 5864 5865 5865 5865 5865 5864 5864 5864 5863 5862 5861 5860 5859 5858 5857 5855 5854 5853 5851 5849 5848 5846 5844 5843 5841 5839 5836 5835 5833 5831 5829 5827 5825 5823 5821 5820 5818
5858 5858 5859 5860 5860 5861 5862 5862 5862 5862 5862 5861 5861 5860 5859 5858 5857 5856 5855 5854 5853 5851 5850 5848 5846 5845 5843 5841 5839 5837 5835 5833 5831 5829 5827 5825 5823 5821 5819 5817 5815 5813 5811
5855 5856 5856 5857 5858 5858 5858 5859 5859 5858 5858 5858 5857 5856 5855 5855 5854 5852 5851 5850 5848 5847 5845 5843 5841 5839 5838 5836 5834 5832 5830 5828 5825 5823 5821 5819 5817 5815 5812 5810 5808 5806 5804
5852 5853 5854 5854 5854 5855 5855 5855 5855 5855 5854 5854 5853 5853 5852 5851 5849 5848 5847 5845 5844 5842 5840 5838 5836 5834 5832 5830 5828 5826 5824 5822 5819 5817 5814 5812 5810 5808 5805 5803 5801 5799 5797
5849 5850 5850 5851 5851 5851 5851 5851 5851 5851 5850 5850 5849 5848 5847 5846 5845 5844 5842 5840 5839 5837 5835 5833 5831 5829 5826 5824 5822 5820 5817 5815 5813 5810 5808 5805 5803 5801 5798 5796 5794 5791 5789
5846 5846 5846 5847 5847 5847 5847 5847 5847 5846 5846 5845 5845 5844 5843 5841 5840 5839 5837 5835 5833 5832 5830 5827 5825 5823 5820 5818 5816 5813 5811 5808 5806 5803 5801 5798 5796 5793 5791 5788 5786 5784 5781
5841 5842 5842 5843 5843 5843 5843 5843 5842 5842 5841 5840 5839 5838 5837 5836 5835 5833 5832 5830 5828 5826 5824 5821 5819 5817 5814 5812 5809 5807 5804 5802 5799 5797 5794 5791 5789 5786 5783 5780 5778 5775 5773
5837 5837 5838 5838 5838 5838 5838 5838 5838 5837 5836 5835 5834 5833 5832 5830 5829 5827 5826 5824 5822 5819 5817 5815 5813 5810 5808 5805 5803 5800 5798 5795 5792 5789 5787 5784 5781 5778 5775 5772 5770 5767 5764
5831 5832 5833 5833 5833 5833 5833 5833 5832 5831 5831 5829 5828 5827 5826 5824 5823 5821 5819 5817 5815 5813 5811 5809 5806 5804 5801 5799 5796 5793 5790 5788 5785 5782 5779 5776 5773 5770 5767 5764 5761 5758 5756
5825 5826 5827 5827 5827 5827 5827 5827 5826 5825 5825 5823 5822 5821 5820 5818 5816 5815 5813 5811 5809 5807 5804 5802 5800 5797 5794 5791 5789 5786 5783 5780 5777 5774 5771 5768 5765 5761 5758 5755 5752 5749 5746
5818 5819 5820 5820 5821 5821 5821 5820 5820 5819 5818 5816 5815 5814 5813 5811 5809 5808 5806 5804 5802 5799 5797 5795 5792 5790 5787 5784 5781 5778 5775 5772 5768 5765 5762 5759 5756 5753 5749 5746 5743 5740 5737
5812 5812 5813 5813 5814 5813 5813 5813 5813 5812 5810 5809 5808 5807 5805 5804 5802 5800 5798 5796 5794 5792 5790 5788 5785 5782 5779 5776 5773 5770 5767 5764 5760 5757 5754 5750 5747 5744 5740 5737 5733 5730 5727
5804 5805 5806 5806 5806 5806 5806 5806 5805 5804 5803 5802 5801 5799 5798 5796 5795 5793 5791 5789 5787 5785 5782 5780 5777 5774 5772 5768 5765 5762 5759 5755 5752 5748 5745 5741 5738 5734 5730 5727 5723 5720 5717
5796 5797 5798 5798 5798 5798 5798 5798 5797 5796 5796 5794 5793 5791 5790 5788 5787 5785 5783 5781 5779 5777 5775 5772 5769 5767 5764 5761 5758 5754 5751 5748 5743 5739 5736 5732 5728 5724 5721 5717 5713 5710 5707
5788 5789 5789 5790 5790 5790 5790 5789 5789 5788 5787 5786 5785 5783 5782 5780 5779 5777 5775 5773 5771 5769 5767 5764 5761 5758 5756 5753 5749 5747 5743 5740 5736 5732 5727 5723 5719 5715 5711 5707 5703 5699 5696
5780 5780 5781 5781 5781 5781 5781 5781 5781 5780 5779 5778 5776 5775 5774 5772 5771 5769 5767 5765 5763 5761 5759 5756 5753 5750 5747 5744 5741 5738 5735 5731 5727 5724 5719 5714 5709 5705 5701 5697 5693 5689 5685
5770 5771 5772 5772 5773 5772 5772 5772 5772 5771 5770 5769 5768 5767 5765 5764 5762 5761 5759 5757 5755 5753 5750 5748 5745 5742 5739 5736 5733 5729 5725 5722 5718 5714 5710 5706 5700 5695 5691 5686 5682 5678 5674
5761 5762 5763 5764 5764 5764 5764 5763 5763 5762 5761 5760 5759 5758 5757 5756 5754 5752 5750 5749 5746 5744 5742 5739 5736 5733 5730 5727 5724 5720 5716 5713 5709 5705 5701 5696 5692 5686 5681 5676 5671 5667 5663